TimeCDT,TemperatureF,Dew PointF,Humidity,Sea Level PressureIn,VisibilityMPH,Wind Direction,Wind SpeedMPH,Gust SpeedMPH,PrecipitationIn,Events,Conditions,WindDirDegrees,DateUTC
12:54 AM,61.0,54.0,78,29.97,10.0,East,6.9,-,N/A,,Mostly Cloudy,90,2013-05-18 05:54:00
1:54 AM,62.1,53.1,72,29.96,10.0,ESE,8.1,-,N/A,,Clear,120,2013-05-18 06:54:00
2:54 AM,60.1,53.1,78,29.95,10.0,ESE,8.1,-,N/A,,Clear,110,2013-05-18 07:54:00
3:54 AM,59.0,54.0,83,29.95,9.0,ESE,5.8,-,N/A,,Clear,110,2013-05-18 08:54:00
4:54 AM,57.9,55.0,90,29.94,6.0,East,5.8,-,N/A,,Clear,100,2013-05-18 09:54:00
5:54 AM,57.9,55.9,93,29.94,5.0,ESE,5.8,-,N/A,,Clear,110,2013-05-18 10:54:00
6:54 AM,60.1,57.9,93,29.96,2.5,East,3.5,-,N/A,,Clear,90,2013-05-18 11:54:00
7:07 AM,60.8,57.2,88,29.97,3.0,ESE,4.6,-,N/A,,Clear,110,2013-05-18 12:07:00
7:54 AM,64.0,60.1,87,29.97,3.0,SE,6.9,-,N/A,,Clear,140,2013-05-18 12:54:00
8:54 AM,69.1,63.0,81,29.96,5.0,South,9.2,-,N/A,,Haze,170,2013-05-18 13:54:00
9:54 AM,72.0,64.0,76,29.96,8.0,SE,9.2,-,N/A,,Clear,140,2013-05-18 14:54:00
10:54 AM,75.0,63.0,66,29.95,10.0,SSE,12.7,-,N/A,,Mostly Cloudy,150,2013-05-18 15:54:00
11:54 AM,78.1,63.0,60,29.93,10.0,SE,11.5,-,N/A,,Scattered Clouds,140,2013-05-18 16:54:00
12:54 PM,77.0,62.1,60,29.92,10.0,SE,12.7,-,N/A,,Mostly Cloudy,140,2013-05-18 17:54:00
1:54 PM,78.8,62.6,57,29.92,10.0,SE,10.4,-,N/A,,Overcast,140,2013-05-18 18:54:00
2:54 PM,81.0,62.1,52,29.88,10.0,SE,15.0,-,N/A,,Mostly Cloudy,130,2013-05-18 19:54:00
3:54 PM,82.0,61.0,49,29.86,10.0,SE,17.3,20.7,N/A,,Scattered Clouds,140,2013-05-18 20:54:00
4:54 PM,82.0,61.0,49,29.84,10.0,SSE,13.8,-,N/A,,Scattered Clouds,160,2013-05-18 21:54:00
5:54 PM,81.0,60.1,49,29.84,10.0,SSE,15.0,-,N/A,,Scattered Clouds,150,2013-05-18 22:54:00
6:54 PM,80.1,59.0,48,29.85,10.0,SSE,13.8,-,N/A,,Overcast,160,2013-05-18 23:54:00
7:54 PM,78.1,60.1,54,29.85,10.0,SSE,9.2,-,N/A,,Mostly Cloudy,160,2013-05-19 00:54:00
8:54 PM,75.9,60.1,58,29.83,10.0,SSE,8.1,-,N/A,,Partly Cloudy,150,2013-05-19 01:54:00
9:54 PM,73.9,61.0,64,29.82,10.0,SE,9.2,-,N/A,,Clear,140,2013-05-19 02:54:00
10:54 PM,73.0,61.0,66,29.81,10.0,SE,11.5,-,N/A,,Clear,140,2013-05-19 03:54:00
11:54 PM,71.1,61.0,70,29.81,10.0,SE,8.1,-,N/A,,Clear,130,2013-05-19 04:54:00